Temperature
11 11 11 11 11 11 11 11 11 11 11 11 11 11 11 11 11 11 11 12 12 12 12 12 12 12 12 12 12 12 12 12 12 12 12 12 12 12 12 12 12 11 11
10 10 10 10 10 10 10 10 10 10 10 10 10 10 10 10 10 10 10 11 11 12 12 12 12 12 12 12 12 12 12 12 12 12 12 12 12 12 12 12 11 11 11
10 10 10 10 10 10 10 10 10 10 10 10 10 10 10 10 10 10 10 10 10 10 11 11 11 11 11 11 11 11 11 11 11 11 11 11 12 12 12 11 11 11 11
9 9 9 9 9 9 9 9 9 9 9 9 9 9 9 9 9 9 9 9 9 10 10 10 11 11 11 11 11 11 11 11 11 11 11 11 11 11 11 11 11 11 11
9 9 8 8 8 8 8 8 8 8 8 8 8 8 8 9 9 9 9 9 9 9 9 9 10 10 10 10 10 10 11 11 11 11 11 11 11 11 11 11 11 11 11
8 8 8 8 8 8 8 8 7 7 7 7 7 7 8 8 8 8 8 8 8 8 8 9 9 9 10 10 10 10 10 10 10 10 10 10 10 10 10 10 11 10 10
8 8 8 7 7 7 7 7 7 7 7 7 6 6 7 7 7 7 7 8 8 8 8 8 8 8 9 9 9 9 9 10 10 10 10 10 10 10 10 10 10 10 10
8 7 7 7 7 7 6 6 6 6 6 5 5 5 5 6 7 7 7 7 7 7 7 7 7 8 8 8 8 9 9 9 9 9 9 9 9 9 10 10 10 10 10
7 7 7 7 6 6 6 5 5 5 5 5 4 4 4 5 5 5 6 6 6 6 7 7 7 7 7 7 7 8 8 9 9 9 9 9 9 9 9 9 9 9 9
7 7 7 6 6 5 5 5 5 4 4 4 4 4 4 4 3 4 5 5 5 6 6 6 6 6 6 7 7 7 8 8 8 8 8 8 9 9 9 9 9 9 9
6 6 6 6 5 5 5 4 4 4 4 3 3 3 3 3 3 3 4 4 5 5 5 5 5 6 6 6 6 7 7 8 8 8 8 8 8 8 8 8 8 8 9
6 6 5 5 5 5 4 4 4 4 4 3 3 3 3 2 3 3 3 3 4 4 4 5 5 5 5 5 6 6 7 7 7 7 7 8 8 8 8 8 8 8 8
5 5 5 5 4 4 4 4 4 3 3 3 3 3 2 2 2 2 2 2 3 3 4 4 4 4 5 5 5 6 6 6 7 7 7 7 7 7 7 8 8 8 8
5 5 4 4 4 4 4 3 3 3 3 3 2 2 2 2 2 2 2 2 2 2 3 3 4 4 4 4 5 5 5 6 6 6 6 7 7 7 7 7 7 7 7
5 4 4 4 4 4 3 3 3 3 2 2 2 2 2 2 2 2 1 1 1 1 2 3 3 3 4 4 4 4 4 5 5 6 6 6 6 6 6 7 7 7 7
4 4 4 4 3 3 3 3 2 2 2 2 2 1 1 1 1 1 1 1 1 1 1 2 2 3 3 3 3 4 4 4 5 5 5 5 6 6 6 6 6 6 7
4 4 4 3 3 3 3 2 2 2 2 1 1 1 1 1 1 1 1 1 1 1 1 1 2 2 2 3 3 3 3 4 4 4 5 5 5 5 6 6 6 6 6
4 3 3 3 3 3 2 2 2 1 1 1 1 1 1 1 1 1 1 1 1 1 1 1 1 2 2 2 3 3 3 3 4 4 4 5 5 5 5 5 5 5 5
3 3 3 3 2 2 2 2 1 1 1 1 1 1 1 0 0 0 0 0 0 0 0 0 1 1 1 2 2 2 3 3 3 3 4 4 4 5 5 5 5 5 5
3 3 3 2 2 2 2 1 1 1 0 0 0 0 0 0 0 0 0 -0 -0 0 0 0 0 1 1 1 2 2 2 2 3 3 3 3 4 4 4 4 4 4 4
3 2 2 2 2 1 1 1 0 -0 -0 -0 -0 -0 -0 -0 -0 -0 -0 -0 -0 -0 -0 -0 0 1 1 1 1 1 2 2 2 2 3 3 3 3 3 4 4 4 4
2 2 2 1 1 1 1 0 -0 -0 -1 -1 -0 -0 -0 -0 -0 -0 -0 -0 -0 -0 -0 -0 -0 0 1 1 1 1 1 1 1 2 2 2 2 2 3 3 3 3 3
1 1 1 1 1 1 0 -0 -0 -1 -1 -1 -1 -1 -1 -1 -1 -1 -1 -1 -1 -1 -1 -0 -0 -0 0 0 1 1 1 1 1 1 2 1 2 2 2 2 3 3 3
1 1 1 0 0 0 0 -0 -1 -1 -1 -1 -1 -1 -1 -1 -1 -1 -1 -1 -1 -1 -1 -1 -1 -0 -0 0 0 1 1 1 1 1 1 1 1 1 1 2 2 2 2
1 0 0 0 -0 -0 -0 -1 -1 -2 -2 -2 -1 -1 -1 -1 -1 -1 -1 -1 -1 -1 -1 -1 -1 -0 -0 0 1 1 1 1 0 0 1 1 1 1 1 1 1 2 2
0 -0 -0 -0 -1 -1 -1 -1 -2 -2 -2 -2 -2 -2 -2 -2 -1 -1 -1 -1 -1 -1 -1 -1 -1 -0 0 0 1 1 1 1 0 0 0 0 0 0 -0 0 1 1 1
Wind_Speed
3 3 3 4 5 5 5 5 6 6 7 6 6 7 7 7 8 8 7 8 10 12 14 15 15 15 15 16 16 16 16 16 16 16 16 16 16 16 17 18 16 17 17
3 3 3 4 5 5 6 6 7 6 6 6 7 7 8 8 8 9 9 9 10 12 13 15 16 16 17 17 17 17 17 16 16 16 16 16 16 16 17 18 18 18 18
3 3 3 4 5 6 6 6 7 6 6 6 8 8 8 8 9 9 9 9 9 11 13 14 16 17 17 18 18 18 17 17 17 17 16 16 16 17 17 17 18 18 18
4 3 3 4 5 6 5 5 6 6 6 7 7 7 8 8 10 10 9 9 9 10 11 13 15 16 17 18 18 18 18 18 18 18 18 17 17 17 18 18 17 18 18
4 4 4 4 5 5 5 5 6 6 7 8 8 8 8 8 9 9 10 10 10 10 11 12 14 16 17 18 19 19 19 18 18 18 18 19 18 18 18 18 18 18 18
4 4 4 5 5 5 5 5 6 7 7 8 9 9 9 9 9 9 10 9 9 11 12 12 11 12 15 17 18 19 20 19 19 19 19 19 19 18 18 18 18 19 20
5 5 4 5 5 5 6 7 7 8 7 7 8 8 8 9 9 8 8 9 10 11 12 12 11 11 11 14 17 18 19 19 18 18 18 19 19 19 19 19 19 19 20
5 4 5 5 5 5 6 6 7 6 6 6 6 8 7 7 6 8 8 9 10 9 10 12 12 12 12 11 12 15 17 19 19 19 19 18 19 20 20 20 20 20 21
5 5 6 6 6 6 6 7 7 7 7 7 6 5 6 6 9 7 9 9 9 9 10 10 12 13 13 12 12 13 15 18 20 19 19 19 20 20 21 21 21 21 21
6 6 6 7 6 6 7 7 7 7 8 7 7 6 8 9 8 8 8 9 11 12 12 10 11 13 14 12 13 15 15 17 19 20 20 20 20 21 21 21 21 21 20
6 6 6 7 7 6 7 8 8 8 7 8 8 7 9 9 11 10 12 12 11 11 11 11 11 12 13 13 13 14 14 16 18 20 20 20 20 21 21 20 21 21 20
5 6 6 7 7 7 8 8 9 10 9 10 9 8 9 8 9 10 12 14 13 12 12 11 11 12 12 13 14 14 14 16 18 19 20 20 20 20 20 21 20 20 20
5 6 7 7 7 8 8 9 9 10 10 11 11 9 9 10 10 10 12 13 15 13 12 11 11 11 11 12 12 13 14 16 17 18 19 20 19 20 20 20 19 18 17
6 8 8 8 9 9 9 9 9 10 10 11 12 12 10 10 10 10 11 12 13 13 13 14 11 11 11 11 12 13 15 15 16 17 18 18 18 18 18 18 17 16 15
7 8 9 9 10 10 10 10 9 11 11 11 12 13 12 11 11 11 11 11 12 14 15 13 11 11 11 11 12 13 15 15 16 17 17 17 17 17 16 15 15 14 13
8 9 9 10 10 10 10 10 10 11 12 12 11 13 13 11 11 11 11 12 12 13 15 13 12 13 13 12 14 15 15 16 16 17 16 16 16 15 14 14 13 12 12
8 9 10 10 10 10 11 10 11 12 13 13 12 13 14 14 11 11 11 11 12 11 14 14 13 13 14 14 13 13 13 13 12 15 15 15 15 14 13 12 12 12 11
9 9 10 10 11 11 11 11 12 12 13 13 13 14 14 12 13 12 11 12 12 12 13 15 14 13 14 13 13 13 12 11 10 11 13 13 13 13 13 12 11 10 10
9 10 10 11 11 11 11 12 12 13 13 13 14 14 14 14 14 12 12 12 11 11 11 12 13 12 11 10 12 11 11 10 9 8 9 9 10 10 10 10 10 9 9
9 10 10 11 11 11 12 12 12 13 13 13 14 14 14 14 14 14 12 12 12 12 11 11 11 11 10 10 9 9 8 7 7 5 5 6 6 7 8 9 9 9 8
10 10 10 11 11 11 10 12 12 12 13 14 14 14 14 14 16 14 12 12 12 10 10 10 10 10 10 8 7 7 7 6 6 4 4 3 3 3 4 5 7 7 7
10 10 10 11 12 10 13 15 14 12 13 13 13 13 13 13 14 16 17 17 15 13 11 10 10 10 11 9 8 7 7 7 6 4 2 2 1 1 2 2 5 6 7
10 10 11 11 12 13 15 16 16 13 12 12 13 12 10 11 13 12 13 15 15 17 16 13 12 13 11 9 9 8 8 6 6 4 2 1 2 1 1 1 5 6 6
9 10 11 11 12 12 15 15 15 12 11 12 12 12 11 12 11 11 11 12 12 12 12 12 12 13 11 10 9 8 7 4 4 3 3 2 2 1 1 0 4 4 4
9 10 10 11 11 12 14 14 14 10 10 11 11 10 10 11 13 13 11 11 12 10 10 12 13 13 13 12 9 5 5 4 3 3 2 1 1 1 2 1 1 3 4
9 10 10 10 10 11 13 14 13 8 9 9 8 9 10 11 12 13 10 10 11 10 9 8 8 9 8 7 7 7 6 5 3 2 2 2 2 1 1 1 1 1 3
Wind_Direction
356 355 349 345 341 337 333 328 322 319 313 305 297 292 289 283 279 275 276 271 269 271 272 271 270 266 264 258 251 248 244 242 243 243 241 239 238 236 234 232 233 234 233
349 340 333 336 335 331 329 322 317 311 307 302 294 289 285 283 279 277 274 271 264 267 271 270 268 267 266 263 257 252 246 244 243 244 243 242 240 239 237 235 234 234 235
335 332 324 324 326 322 321 318 315 311 306 301 293 289 286 283 280 279 276 274 271 264 263 266 267 266 266 265 261 257 250 246 244 243 243 243 242 240 239 238 237 235 235
324 324 320 317 322 319 319 316 313 310 310 307 299 292 286 283 280 278 275 272 273 273 268 265 266 266 267 266 265 262 256 249 246 244 242 242 242 242 240 240 239 237 236
314 316 313 314 315 315 313 312 314 311 308 307 301 293 286 280 279 277 275 274 273 272 274 271 266 264 266 268 266 265 263 255 249 246 243 241 240 241 242 242 241 241 239
302 308 306 309 311 305 306 306 308 309 304 302 300 294 285 279 275 271 274 274 273 273 272 273 270 264 261 264 267 265 264 261 255 248 246 243 239 240 242 243 243 244 241
297 299 299 302 304 301 302 304 304 305 309 309 302 299 288 273 269 269 274 276 276 275 273 271 268 269 267 261 261 264 265 264 259 252 247 245 242 242 242 244 245 246 245
289 291 294 295 296 297 296 298 298 297 300 308 303 307 303 292 273 274 272 275 275 278 275 271 268 268 267 267 263 261 263 265 263 255 249 247 247 245 244 244 246 247 247
285 287 288 291 291 290 291 293 292 288 292 294 291 288 295 294 310 282 276 275 279 277 275 275 271 270 266 265 265 259 259 264 264 259 254 251 250 250 247 245 245 247 248
285 285 285 286 287 286 286 287 285 280 280 283 281 266 269 284 288 295 286 280 282 278 275 275 275 273 269 268 265 262 260 260 263 261 260 256 252 251 251 246 246 247 250
284 284 284 284 283 281 281 281 280 275 271 271 273 275 274 274 271 277 288 290 285 279 277 276 275 273 272 270 267 262 261 260 261 263 263 262 257 252 251 250 249 249 250
285 285 286 283 281 279 278 278 276 273 267 266 266 265 268 271 274 276 281 287 289 286 282 277 274 271 269 269 267 267 264 260 261 264 265 262 260 255 253 252 253 251 250
288 290 290 285 283 281 279 278 275 272 268 266 264 264 263 264 269 274 278 284 287 289 286 278 274 271 269 270 269 267 264 261 261 263 263 261 260 257 255 252 252 253 253
287 292 289 286 284 282 280 277 274 271 268 266 265 264 263 264 263 265 270 279 285 287 285 282 280 273 274 273 274 276 269 263 263 264 263 262 259 255 253 251 249 249 251
288 288 287 286 284 282 279 278 272 272 271 268 267 265 264 264 262 262 263 264 270 282 284 287 286 280 278 276 274 275 275 266 265 264 264 263 257 251 248 245 245 245 244
286 286 286 286 286 284 281 278 275 274 273 271 268 268 266 265 263 261 261 262 260 267 277 282 286 287 281 278 276 274 276 271 264 260 260 260 253 246 243 241 237 237 239
287 286 287 287 285 284 283 279 276 276 274 273 270 269 269 268 267 264 262 263 262 263 270 280 284 286 283 280 281 276 277 272 266 258 257 253 249 242 236 233 233 233 231
289 288 287 285 283 282 281 279 279 278 275 274 273 271 271 272 268 267 264 264 264 263 266 276 283 285 282 280 280 280 278 276 270 264 254 249 245 238 232 227 224 224 222
291 290 287 284 283 282 281 279 279 278 276 275 274 273 272 272 270 269 268 266 266 267 266 270 279 282 282 281 283 282 277 278 272 265 253 247 238 232 225 218 217 215 211
292 291 289 286 284 282 280 281 280 280 278 276 275 272 272 269 270 271 270 269 268 267 266 267 272 278 280 279 276 279 281 281 279 272 264 257 239 227 218 213 214 207 196
295 293 292 291 288 284 281 284 284 283 282 280 278 275 273 269 269 269 270 271 271 268 269 269 272 275 275 274 270 273 273 281 288 271 260 259 248 240 226 204 197 184 179
299 298 295 294 291 287 287 288 289 286 284 281 280 280 277 272 271 271 270 270 270 268 268 269 271 268 272 272 274 275 275 278 282 276 243 269 264 264 260 215 154 154 163
302 300 299 297 295 293 294 293 290 290 286 283 282 283 280 279 278 275 275 275 272 267 264 263 263 265 270 272 270 270 269 266 268 267 233 268 293 271 260 131 132 145 156
302 300 298 297 297 299 304 301 297 290 285 283 284 282 282 283 281 281 281 279 276 273 269 266 263 265 265 267 265 260 260 260 275 276 243 235 272 287 321 141 125 143 159
304 302 299 298 299 302 307 308 305 294 288 286 284 283 283 284 286 285 281 278 279 281 279 273 272 271 272 270 262 253 240 218 242 277 276 220 230 31 14 18 99 132 142
301 301 300 300 301 303 308 310 308 298 295 294 292 288 283 285 291 291 283 280 280 283 287 287 284 282 275 270 261 247 232 213 218 253 265 188 168 128 38 3 35 108 132
Height
1504 1503 1502 1501 1499 1498 1497 1495 1494 1493 1492 1491 1490 1488 1487 1487 1486 1485 1483 1483 1483 1482 1482 1482 1482 1482 1482 1482 1482 1483 1483 1483 1484 1484 1485 1485 1485 1486 1486 1487 1488 1488 1489
1502 1501 1500 1498 1497 1495 1494 1492 1491 1489 1488 1487 1485 1484 1483 1482 1481 1480 1479 1478 1477 1476 1476 1476 1476 1476 1476 1476 1476 1476 1477 1477 1478 1479 1479 1480 1480 1480 1481 1482 1482 1483 1484
1500 1499 1497 1496 1494 1492 1491 1489 1488 1486 1485 1483 1482 1480 1479 1477 1476 1475 1474 1473 1472 1471 1470 1470 1470 1470 1470 1470 1470 1470 1470 1471 1471 1472 1473 1474 1474 1475 1475 1476 1477 1477 1478
1498 1496 1495 1493 1491 1490 1488 1486 1485 1483 1481 1479 1478 1476 1475 1473 1471 1470 1469 1467 1466 1465 1464 1463 1463 1463 1463 1463 1463 1464 1464 1464 1465 1465 1466 1467 1468 1469 1469 1470 1471 1472 1472
1495 1494 1492 1490 1488 1487 1485 1483 1481 1480 1477 1475 1473 1471 1469 1468 1466 1465 1464 1462 1461 1459 1458 1457 1457 1456 1456 1456 1456 1457 1457 1457 1457 1458 1459 1460 1461 1462 1463 1463 1464 1465 1466
1493 1491 1489 1487 1485 1483 1482 1480 1478 1476 1474 1472 1469 1466 1464 1462 1460 1459 1458 1457 1455 1454 1453 1451 1450 1450 1449 1449 1449 1449 1450 1450 1450 1451 1452 1453 1454 1455 1456 1457 1458 1458 1459
1489 1488 1486 1484 1482 1480 1478 1477 1475 1472 1470 1468 1465 1462 1459 1457 1455 1453 1452 1451 1450 1448 1447 1446 1445 1444 1443 1442 1442 1442 1443 1443 1443 1444 1445 1446 1446 1447 1448 1450 1451 1452 1453
1486 1485 1483 1481 1479 1477 1475 1473 1471 1469 1467 1465 1463 1460 1456 1453 1450 1448 1447 1445 1444 1443 1441 1440 1439 1438 1437 1436 1435 1435 1435 1436 1436 1437 1438 1438 1439 1440 1441 1442 1443 1444 1446
1483 1481 1479 1477 1475 1473 1471 1469 1468 1466 1463 1462 1461 1460 1456 1450 1446 1443 1441 1440 1438 1437 1435 1434 1433 1432 1430 1429 1428 1428 1428 1428 1429 1429 1430 1430 1431 1432 1433 1435 1436 1437 1438
1479 1477 1475 1473 1471 1469 1467 1465 1464 1462 1460 1458 1457 1455 1454 1451 1447 1439 1436 1435 1434 1431 1430 1428 1426 1425 1424 1422 1421 1420 1420 1421 1421 1421 1422 1422 1423 1424 1426 1427 1428 1429 1431
1474 1472 1470 1468 1466 1465 1463 1461 1459 1457 1455 1453 1452 1450 1448 1446 1443 1439 1432 1429 1428 1426 1424 1422 1420 1419 1417 1415 1414 1413 1413 1413 1414 1414 1414 1415 1415 1417 1418 1419 1420 1422 1423
1470 1468 1466 1464 1462 1460 1458 1456 1454 1452 1450 1448 1446 1444 1443 1441 1439 1435 1430 1425 1421 1419 1418 1416 1414 1412 1410 1409 1408 1406 1406 1405 1406 1406 1406 1407 1407 1408 1410 1411 1413 1414 1416
1465 1463 1462 1460 1458 1455 1453 1451 1449 1446 1445 1442 1440 1438 1436 1434 1433 1430 1426 1421 1416 1412 1411 1409 1407 1405 1404 1403 1401 1400 1398 1398 1398 1398 1398 1399 1399 1400 1401 1403 1405 1406 1408
1461 1459 1457 1455 1453 1450 1448 1446 1443 1441 1439 1436 1434 1432 1430 1428 1426 1424 1422 1418 1411 1406 1404 1402 1401 1399 1398 1396 1395 1393 1391 1390 1390 1390 1390 1390 1391 1392 1393 1395 1397 1398 1401
1456 1454 1452 1450 1447 1445 1442 1440 1437 1435 1432 1430 1428 1426 1423 1421 1419 1417 1415 1413 1410 1403 1396 1395 1395 1393 1392 1390 1388 1386 1384 1383 1383 1382 1382 1382 1383 1384 1386 1387 1389 1391 1393
1452 1449 1447 1445 1442 1440 1437 1434 1431 1428 1426 1423 1421 1418 1416 1414 1412 1410 1408 1406 1404 1400 1393 1388 1388 1387 1385 1383 1381 1380 1377 1376 1374 1374 1374 1374 1375 1376 1378 1380 1382 1384 1386
1447 1444 1442 1439 1436 1434 1431 1428 1425 1422 1419 1416 1414 1412 1409 1407 1405 1403 1400 1398 1396 1394 1388 1383 1382 1381 1379 1376 1374 1373 1371 1369 1367 1366 1366 1367 1368 1369 1371 1373 1375 1377 1379
1441 1439 1436 1433 1430 1427 1424 1421 1418 1415 1412 1409 1407 1405 1402 1400 1398 1396 1393 1391 1389 1387 1384 1378 1375 1374 1372 1370 1368 1366 1364 1362 1361 1359 1359 1360 1361 1363 1364 1367 1369 1371 1373
1436 1433 1430 1427 1424 1421 1418 1415 1411 1408 1405 1403 1400 1398 1395 1393 1391 1389 1386 1384 1382 1380 1377 1374 1369 1368 1366 1365 1362 1360 1358 1356 1355 1354 1353 1354 1355 1356 1359 1361 1363 1365 1367
1431 1427 1424 1421 1418 1414 1411 1408 1405 1401 1398 1395 1393 1390 1388 1386 1384 1382 1379 1377 1375 1373 1371 1368 1364 1362 1361 1359 1358 1355 1353 1351 1349 1349 1349 1350 1350 1352 1353 1355 1357 1359 1361
1425 1422 1418 1415 1411 1408 1405 1401 1398 1395 1391 1388 1385 1383 1381 1379 1377 1375 1373 1371 1369 1367 1364 1361 1359 1357 1356 1354 1353 1351 1349 1347 1346 1346 1346 1346 1347 1347 1348 1350 1352 1355 1357
1420 1416 1413 1409 1405 1402 1399 1395 1392 1388 1385 1382 1378 1376 1374 1372 1370 1368 1367 1365 1364 1361 1358 1356 1354 1352 1351 1350 1348 1347 1346 1344 1342 1344 1343 1343 1344 1344 1345 1346 1349 1351 1353
1414 1411 1407 1403 1399 1396 1392 1389 1385 1382 1379 1375 1372 1369 1367 1366 1364 1362 1360 1358 1357 1355 1353 1351 1348 1347 1346 1345 1344 1343 1342 1341 1340 1340 1340 1339 1341 1341 1343 1344 1346 1348 1351
1409 1405 1402 1398 1394 1390 1386 1382 1379 1376 1373 1370 1367 1364 1362 1360 1358 1357 1354 1352 1350 1348 1347 1345 1344 1342 1341 1341 1340 1340 1339 1338 1337 1338 1338 1338 1339 1340 1341 1342 1344 1346 1348
1404 1401 1397 1393 1389 1385 1381 1378 1375 1371 1368 1365 1362 1360 1357 1355 1353 1352 1350 1346 1344 1342 1341 1339 1338 1337 1336 1335 1335 1336 1336 1335 1334 1335 1336 1336 1337 1338 1339 1340 1342 1344 1346
1400 1396 1392 1389 1385 1380 1377 1374 1371 1367 1363 1360 1357 1355 1352 1350 1348 1347 1345 1342 1338 1336 1335 1334 1333 1331 1331 1331 1331 1332 1333 1333 1332 1333 1334 1335 1336 1337 1338 1340 1341 1343 1344